Weather History for La Grande, OR

Change the Weather History Date:

Saturday, June 29, 2013

  Actual Average Record
Temperature  
Mean Temperature 78 °F -  
Max Temperature 89 °F 77 °F 96 °F (2003)
Min Temperature 66 °F 47 °F 33 °F (1971)
Cooling Degree Days 12    
Growing Degree Days 28 (Base 50)    
Moisture  
Dew Point 55 °F    
Average Humidity 47    
Maximum Humidity 64    
Minimum Humidity 33    
Precipitation  
Precipitation 0.00 in - - ()
Sea Level Pressure  
Sea Level Pressure 30.04 in    
Wind  
Wind Speed 10 mph (NW)    
Max Wind Speed 17 mph    
Max Gust Speed 23 mph    
Visibility 10 miles    
Events Thunderstorm    
Averages and records for this station are not official NWS values.
T = Trace of Precipitation, MM = Missing Value Source: NWS Daily Summary

Daily Weather History Graph

Daily Weather History Graph

Search for Another Location

Airport:

Trip Planner

Search our weather history database for the weather conditions in past years. The results will help you decide how hot, cold, wet, or windy it might be!

Date:

Astronomy

Jun. 29, 2013 Rise Set
Actual Time 5:07 AM PDT 8:43 PM PDT
Civil Twilight 4:29 AM PDT 9:21 PM PDT
Nautical Twilight 3:39 AM PDT 10:11 PM PDT
Astronomical Twilight 2:32 AM PDT 11:17 PM PDT
Moon No Moon Rise 12:45 PM PDT
Length of Visible Light 16h 51m
Length of Day
15h 36m
Waning Gibbous, 54% of the Moon is Illuminated
Jun 29
Waning Gibbous
Jun 29
Last Quarter
Jul 8
New
Jul 15
First Quarter
Jul 22
Full

Hourly Weather History & Observations

Time (PDT) Temp. Heat Index Dew Point Humidity Pressure Visibility Wind Dir Wind Speed Gust Speed Precip Events Conditions
12:15 AM 77.0 °F - 51.8 °F 41% 30.06 in 10.0 mi NNW 10.4 mph - N/A   Clear
12:35 AM 75.2 °F - 51.8 °F 44% 30.06 in 10.0 mi NNW 6.9 mph - N/A   Clear
12:55 AM 73.4 °F - 51.8 °F 47% 30.06 in 10.0 mi NW 10.4 mph - N/A   Clear
1:15 AM 73.4 °F - 53.6 °F 50% 30.06 in 10.0 mi NNW 6.9 mph - N/A   Clear
1:35 AM 71.6 °F - 51.8 °F 50% 30.06 in 10.0 mi NNW 5.8 mph - N/A   Clear
1:55 AM 69.8 °F - 51.8 °F 53% 30.06 in 10.0 mi NNW 5.8 mph - N/A   Clear
2:15 AM 69.8 °F - 51.8 °F 53% 30.07 in 10.0 mi Calm Calm - N/A Thunderstorm Clear
2:35 AM 69.8 °F - 51.8 °F 53% 30.05 in 10.0 mi NNW 6.9 mph - N/A   Clear
2:55 AM 69.8 °F - 53.6 °F 56% 30.05 in 10.0 mi ENE 4.6 mph - N/A   Partly Cloudy
3:15 AM 69.8 °F - 53.6 °F 56% 30.07 in 10.0 mi SSW 5.8 mph - N/A   Clear
3:35 AM 68.0 °F - 53.6 °F 60% 30.08 in 10.0 mi West 8.1 mph - N/A   Clear
3:55 AM 69.8 °F - 53.6 °F 56% 30.09 in 10.0 mi Calm Calm - N/A Thunderstorm Mostly Cloudy
4:15 AM 68.0 °F - 53.6 °F 60% 30.09 in 10.0 mi ENE 13.8 mph - N/A   Scattered Clouds
4:35 AM 66.2 °F - 53.6 °F 64% 30.05 in 10.0 mi East 15.0 mph - N/A   Scattered Clouds
4:55 AM 66.2 °F - 53.6 °F 64% 30.03 in 10.0 mi West 10.4 mph - N/A   Scattered Clouds
5:15 AM 66.2 °F - 53.6 °F 64% 30.02 in 10.0 mi NW 6.9 mph - N/A   Clear
5:35 AM 68.0 °F - 53.6 °F 60% 30.00 in 10.0 mi NNW 8.1 mph - N/A   Scattered Clouds
5:55 AM 68.0 °F - 53.6 °F 60% 30.05 in 10.0 mi ESE 3.5 mph - N/A   Partly Cloudy
6:15 AM 66.2 °F - 53.6 °F 64% 30.03 in 10.0 mi East 6.9 mph - N/A   Partly Cloudy
6:35 AM 66.2 °F - 53.6 °F 64% 30.03 in 10.0 mi SSE 9.2 mph - N/A   Clear
6:55 AM 68.0 °F - 55.4 °F 64% 30.04 in 10.0 mi NW 5.8 mph - N/A   Clear
7:15 AM 71.6 °F - 57.2 °F 60% 30.04 in 10.0 mi SW 5.8 mph - N/A   Clear
7:35 AM 71.6 °F - 55.4 °F 57% 30.04 in 10.0 mi Calm Calm - N/A   Clear
7:55 AM 73.4 °F - 53.6 °F 50% 30.05 in 10.0 mi WNW 13.8 mph 17.3 mph N/A   Clear
8:15 AM 71.6 °F - 53.6 °F 53% 30.05 in 10.0 mi WNW 15.0 mph - N/A   Clear
8:35 AM 75.2 °F - 55.4 °F 50% 30.05 in 10.0 mi NW 17.3 mph - N/A   Clear
8:55 AM 77.0 °F - 55.4 °F 47% 30.05 in 10.0 mi WNW 16.1 mph - N/A   Clear
9:15 AM 77.0 °F - 55.4 °F 47% 30.05 in 10.0 mi NW 17.3 mph - N/A   Clear
9:35 AM 78.8 °F - 55.4 °F 44% 30.05 in 10.0 mi WNW 15.0 mph 21.9 mph N/A   Clear
9:55 AM 78.8 °F - 55.4 °F 44% 30.06 in 10.0 mi WNW 15.0 mph 23.0 mph N/A   Clear
10:15 AM 80.6 °F 80.8 °F 57.2 °F 45% 30.06 in 10.0 mi WNW 17.3 mph 20.7 mph N/A   Clear
10:35 AM 80.6 °F 80.5 °F 55.4 °F 42% 30.06 in 10.0 mi WNW 16.1 mph - N/A   Clear
10:55 AM 82.4 °F 82.0 °F 57.2 °F 42% 30.06 in 10.0 mi NW 16.1 mph - N/A   Clear
11:15 AM 82.4 °F 82.0 °F 57.2 °F 42% 30.05 in 10.0 mi NW 13.8 mph - N/A   Clear
11:35 AM 84.2 °F 83.5 °F 57.2 °F 40% 30.05 in 10.0 mi NW 13.8 mph - N/A   Clear
11:55 AM 84.2 °F 83.5 °F 57.2 °F 40% 30.04 in 10.0 mi WNW 12.7 mph - N/A   Clear
12:15 PM 86.0 °F 84.9 °F 57.2 °F 37% 30.03 in 10.0 mi WNW 12.7 mph 16.1 mph N/A   Clear
12:35 PM 86.0 °F 84.9 °F 57.2 °F 37% 30.03 in 10.0 mi WNW 10.4 mph - N/A   Clear
12:55 PM 87.8 °F 86.5 °F 57.2 °F 35% 30.03 in 10.0 mi WNW 11.5 mph 16.1 mph N/A   Clear
1:15 PM 87.8 °F 86.5 °F 57.2 °F 35% 30.02 in 10.0 mi WNW 13.8 mph - N/A   Clear
1:35 PM 87.8 °F 86.5 °F 57.2 °F 35% 30.02 in 10.0 mi WNW 17.3 mph 21.9 mph N/A   Clear
1:55 PM 89.6 °F 88.9 °F 59.0 °F 36% 30.02 in 10.0 mi WNW 16.1 mph 20.7 mph N/A   Clear
2:15 PM 87.8 °F 86.5 °F 57.2 °F 35% 30.02 in 10.0 mi WNW 15.0 mph 20.7 mph N/A   Clear
2:35 PM 87.8 °F 86.5 °F 57.2 °F 35% 30.02 in 10.0 mi NW 13.8 mph 20.7 mph N/A   Clear
2:55 PM 89.6 °F 88.9 °F 59.0 °F 36% 30.02 in 10.0 mi WNW 13.8 mph - N/A   Clear
3:15 PM 87.8 °F 87.1 °F 59.0 °F 38% 30.01 in 10.0 mi WNW 12.7 mph - N/A   Clear
3:35 PM 87.8 °F 86.5 °F 57.2 °F 35% 30.00 in 10.0 mi NNW 15.0 mph 18.4 mph N/A   Clear
3:55 PM 87.8 °F 86.5 °F 57.2 °F 35% 30.01 in 10.0 mi NW 11.5 mph 18.4 mph N/A   Clear
4:15 PM 87.8 °F 86.5 °F 57.2 °F 35% 30.00 in 10.0 mi NW 15.0 mph 23.0 mph N/A   Clear
4:35 PM 87.8 °F 86.5 °F 57.2 °F 35% 30.00 in 10.0 mi NNW 13.8 mph - N/A   Clear
4:55 PM 87.8 °F 86.5 °F 57.2 °F 35% 30.00 in 10.0 mi WNW 13.8 mph - N/A   Clear
5:15 PM 87.8 °F 86.5 °F 57.2 °F 35% 30.00 in 10.0 mi WNW 12.7 mph 18.4 mph N/A   Clear
5:35 PM 87.8 °F 86.1 °F 55.4 °F 33% 30.00 in 10.0 mi WNW 15.0 mph - N/A   Clear
5:55 PM 86.0 °F 84.9 °F 57.2 °F 37% 30.00 in 10.0 mi NNW 17.3 mph - N/A   Clear
6:15 PM 84.2 °F 83.5 °F 57.2 °F 40% 30.00 in 10.0 mi NNW 16.1 mph 20.7 mph N/A   Clear
6:35 PM 84.2 °F 83.5 °F 57.2 °F 40% 30.01 in 10.0 mi NW 16.1 mph - N/A   Clear
6:55 PM 82.4 °F 82.0 °F 57.2 °F 42% 30.01 in 10.0 mi NW 12.7 mph - N/A   Clear
7:15 PM 82.4 °F 82.0 °F 57.2 °F 42% 30.00 in 10.0 mi NW 11.5 mph - N/A   Clear
7:35 PM 82.4 °F 81.7 °F 55.4 °F 39% 30.01 in 10.0 mi NW 13.8 mph - N/A   Clear
7:55 PM 80.6 °F 80.5 °F 55.4 °F 42% 30.01 in 10.0 mi NW 10.4 mph - N/A   Clear
8:15 PM 80.6 °F 80.5 °F 55.4 °F 42% 30.02 in 10.0 mi WNW 9.2 mph - N/A   Clear
8:35 PM 78.8 °F - 53.6 °F 42% 30.03 in 10.0 mi NW 10.4 mph - N/A   Clear
8:55 PM 75.2 °F - 53.6 °F 47% 30.03 in 10.0 mi NW 6.9 mph - N/A   Clear
9:15 PM 73.4 °F - 53.6 °F 50% 30.04 in 10.0 mi NNW 5.8 mph - N/A   Clear
9:35 PM 71.6 °F - 53.6 °F 53% 30.04 in 10.0 mi NNW 8.1 mph - N/A   Clear
9:55 PM 73.4 °F - 53.6 °F 50% 30.04 in 10.0 mi NNW 6.9 mph - N/A   Clear
10:15 PM 71.6 °F - 53.6 °F 53% 30.05 in 10.0 mi NNW 6.9 mph - N/A   Clear
10:35 PM 71.6 °F - 53.6 °F 53% 30.05 in 10.0 mi NW 9.2 mph - N/A   Clear
10:55 PM 73.4 °F - 53.6 °F 50% 30.05 in 10.0 mi WNW 9.2 mph - N/A   Clear
11:15 PM 73.4 °F - 53.6 °F 50% 30.05 in 10.0 mi NW 8.1 mph - N/A   Clear
11:35 PM 71.6 °F - 53.6 °F 53% 30.05 in 10.0 mi NW 5.8 mph - N/A   Clear
11:55 PM 68.0 °F - 51.8 °F 56% 30.05 in 10.0 mi NW 5.8 mph - N/A   Clear